Погода Чёрный Яр

Погода Чёрный Яр : погода сейчас, прогноз погоды и архив. Всё, что Вы хотите узнать о погоде Чёрный Яр!

Поиск расширенной информации на нашем сайте:

Другие новости

Новости СМИ2

Главная страница сайта

Новости сайта

03.07.2017

Напоминаем, что на нашем специализированном сайте Метеоцентр.Азия вы можете получить высокодетализированные автоматические прогнозы погоды по пунктам России, СНГ и мира в авиационном формате (включающие направление и скорость ветра, видимость, явления погоды, количество и форму облачности, нижнюю и верхнюю границу облачности).

Рекомендуем: Изготовление деревянных крестов здесь.

Погода Чёрный Яр - сегодня

Время (UTC), дата Ветер
(°,м/с) 
Видим.   Явления Облачность Т
(°С)
Тd
(°С)
f(%) Тe
(°С)
Pmin
(гПа)
dP
(гПа)
Po
(мм)
O2
(г/м3)
Тmin Tmax R s Состояние
почвы
09 20.01.18 140 (ЮВ) 4000 м  снежные зёрна [диам. изморози 2 мм]  10/10 200 м 
[St]
-4.2 -4.4 99 -6  1022    766  314           
12 20.01.18 160 (Ю) 4000 м  слаб. снег  10/9 100 м средняя 
[Frnb|As op]
-3.2 -3.3 99 -4  1022.2  0.2  766  313           
15 20.01.18 100 (В) 4000 м  дымка{снег}  10/10 200 м 
[St]
-3.1 -3.5 97 -3  1022.7  0.5  767  313    -3.1  0.9     
18 20.01.18 090 (В) 4000 м  дымка{снег}  10/10 200 м 
[St]
-3 -3.4 97 -4  1022.6  -0.1  766  313           
21 20.01.18 110 (В) 4000 м  дымка  10/10 200 м 
[St]
-3.3 -3.7 97 -4  1021.8  -0.8  766  313           
00 21.01.18 090 (В) 2000 м  дымка  10/10 200 м 
[St]
-3.8 -4 99 -5  1020.9  -0.9  765  313           
03 21.01.18 080 (В) 0500 м  переохл. туман  ?/?  
-4.1 -4.1 100 -5  1020.1  -0.8  765  313  -4.1      равномерный
сухой снег
100% 
06 21.01.18 100 (В) 4000 м  дымка{туман} [диам. изморози 3 мм]  10/10 300 м 
[St]
-5.6 -6 97 -7  1019.5  -0.7  764  315  -5.6         
09 21.01.18 080 (В) 4000 м  дымка  10/0 средняя 
[Ac und]
-5 -5.6 96 -7  1018.1  -1.3  763  314           
12 21.01.18 080 (В) 4000 м  дымка  10/0 средняя 
[Ac und]
-4.5 -6.2 88 -8  1016  -2.1  761  313           
15 21.01.18 150 (ЮВ) 10 км    10/0 средняя 
[As op]
-3.2 -5.4 85 -6  1017.9  1.9  763  312    -3.1       
18 21.01.18 130 (ЮВ) 4000 м  дымка{снег, дождь} [диам. гололёда 2 мм]  10/10 600 м 
[Sc]
-3.2 -3.8 96 -6  1015.8  -2.1  761  311           
21 21.01.18 150 (ЮВ) 1000 м  дымка [диам. гололёда 2 мм]  10/10 100 м 
[St]
-2.6 -2.9 98 -5  1016.5  0.7  762  310           
00 22.01.18 150 (ЮВ) 0500 м  переохл. туман [диам. сложн. отлож. 4 мм]  ?/?  
-2.2 -2.2 100 -3  1017.2  0.7  762  310           
03 22.01.18 130 (ЮВ) 0500 м  туман  ?/?  
-1.4 -1.4 100 -1  1017.4  0.2  763  309  -3.9    равномерный
мокрый или
старый снег
100% 
06 22.01.18 070 (В) 0500 м  переохл. туман [диам. сложн. отлож. 5 мм]  ?/?  
-1.1 -1.1 100 -1  1017.8  0.3  763  309           
09 22.01.18 050 (СВ) 4000 м  дымка{туман}  10/10 100 м 
[St]
-0.6 -1.1 96 -1  1017.5  -0.3  763  308           
12 22.01.18 050 (СВ) 4000 м  дымка{туман}  10/10 200 м 
[St]
-1.2 -1.8 96 -3  1016.9  -0.6  762  309           
15 22.01.18 040 (СВ) 4000 м  дымка  10/10 200 м 
[St]
-2.8 -3.4 96 -5  1016.7  -0.2  762  311    -0.5       
18 22.01.18 040 (СВ) 4000 м  дымка  10/10 200 м 
[St]
-3.5 -3.8 98 -6  1016.3  -0.4  762  311           
21 22.01.18 040 (СВ) 4000 м  дымка  10/10 200 м 
[St]
-3.8 -4.5 95 -7  1014.9  -1.4  761  311           
00 23.01.18 040 (СВ) 4000 м  дымка  10/10 200 м 
[St]
-4.4 -4.7 98 -8  1014  -0.9  760  312           
03 23.01.18 040 (СВ) 4000 м  дымка  10/10 200 м 
[St]
-5.3 -5.7 97 -9  1013.5  -0.5  760  313  -5.3         
06 23.01.18 040 (СВ) 4000 м  дымка  10/10 200 м 
[St]
-6.1 -6.4 98 -9  1014.2  0.7  760  314  -6.1         
09 23.01.18 040 (СВ) 4000 м  дымка  10/10 200 м 
[St]
-5.5 -6.5 93 -8  1013.7  -0.5  760  313           
Время (UTC), дата Ветер
(°,м/с) 
Видим.   Явления Облачность Т
(°С)
Тd
(°С)
f(%) Тe
(°С)
Pmin
(гПа)
dP
(гПа)
Po
(мм)
O2
(г/м3)
Тmin Tmax R s Состояние
почвы

Для получения пояснительной информации подведите курсор к названию столбца.

ПОГОДА Чёрный Яр - архив

Всё, что Вы хотите узнать о погоде Чёрный Яр - удобно и подробно!

Выберите нужную дату (начиная с 1 января 2015* года) и нажмите кнопку "Найти".
Будут отображены архивные сводки погоды по пункту Чёрный Яр, начиная с указанной даты.


Отображать данные в формате CSV (для использования в таблицах Excel)


Внимание! Наш архив погоды предназначен исключительно для личного некоммерческого использования в познавательных целях. Если Вам необходимы официальные справки о состоянии погоды (для производственных, юридических, коммерческих и т.п. целей), обращайтесь в органы Росгидромета.

*Примечание: данная дата относится к архиву по метеостанциям СССР (Россия, СНГ, Балтия).
Архив по метеостанциям Зарубежной Европы и Азии (кроме Китая) хранится 10 дней, по другим регионам земного шара (Китай, Африка, Америка, Австралия, Океания) - 1 день.

Чёрный Яр - район местоположения метеостанции


Название, широта, долгота, высота метеостанции:
Чёрный Яр 48.1°ш. 46.1°д. 5 м над ур. моря [Российская Федерация]

Дополнительная информация

В oтличие oт бoльшинства пoгoдных сайтoв мы публикуем пoдрoбную метеoинфoрмацию в детальнoм прoфессиoнальнoм фoрмате.

Характеристики температуры и влажнoсти вoздуха измеряются на высoте 2 м в тени вдали oт зданий и деревьев.
Скoрoсть ветра измеряется на высoте 10 м (на урoвне рoста челoвека скoрoсть ветра ниже в 1.5-2 раза). Если метеoстанция нахoдится в гoрoде или в лесу, тo скoрoсть ветра занижена на 2-4 м/с пo сравнению с oткрытым местoм. Скoрoсть ветра над акватoриями крупных рек и oзёр, а также на вершинах хoлмoв на 2-5 м/с выше, чем в oбычных услoвиях.
Атмoсфернoе давление в разных тoчках местнoсти мoжет значительнo oтличаться oт давления на метеoстанции, в зависимoсти oт услoвий рельефа (при пoдъёме на 10 м давление пoнижается примернo на 1 мм рт.ст.).